TimeCST,TemperatureF,Dew PointF,Humidity,Sea Level PressureIn,VisibilityMPH,Wind Direction,Wind SpeedMPH,Gust SpeedMPH,PrecipitationIn,Events,Conditions,WindDirDegrees,DateUTC
12:15 AM,30.7,18.5,60,30.06,10.0,SSW,15.0,-,N/A,,Clear,210,2013-11-14 06:15:00
12:35 AM,30.6,18.5,61,30.05,10.0,SSW,15.0,-,N/A,,Clear,210,2013-11-14 06:35:00
12:55 AM,31.1,18.5,60,30.05,10.0,SSW,16.1,20.7,N/A,,Clear,210,2013-11-14 06:55:00
1:15 AM,31.3,18.9,60,30.05,10.0,SSW,12.7,-,N/A,,Clear,210,2013-11-14 07:15:00
1:35 AM,31.6,19.0,60,30.04,10.0,SSW,15.0,-,N/A,,Clear,210,2013-11-14 07:35:00
1:55 AM,30.2,18.9,63,30.03,10.0,SSW,13.8,-,N/A,,Clear,210,2013-11-14 07:55:00
2:15 AM,30.2,18.9,63,30.02,10.0,SSW,15.0,-,N/A,,Clear,210,2013-11-14 08:15:00
2:35 AM,29.8,19.0,64,30.02,10.0,SSW,12.7,-,N/A,,Clear,200,2013-11-14 08:35:00
2:55 AM,29.3,19.2,66,30.02,10.0,SSW,11.5,-,N/A,,Clear,200,2013-11-14 08:55:00
3:15 AM,28.8,19.2,68,30.01,10.0,SSW,12.7,-,N/A,,Clear,200,2013-11-14 09:15:00
3:35 AM,28.0,19.4,70,30.00,10.0,SSW,11.5,-,N/A,,Clear,200,2013-11-14 09:35:00
3:55 AM,28.0,19.4,70,30.00,10.0,SSW,12.7,-,N/A,,Clear,200,2013-11-14 09:55:00
4:15 AM,27.9,19.8,72,29.99,10.0,SSW,12.7,-,N/A,,Clear,200,2013-11-14 10:15:00
4:35 AM,27.5,19.8,73,29.99,10.0,SSW,11.5,-,N/A,,Clear,200,2013-11-14 10:35:00
4:55 AM,27.5,19.8,73,29.99,10.0,SSW,10.4,-,N/A,,Clear,200,2013-11-14 10:55:00
5:15 AM,27.5,19.9,73,29.98,10.0,SSW,12.7,-,N/A,,Clear,200,2013-11-14 11:15:00
5:35 AM,27.9,20.1,73,29.98,10.0,SSW,11.5,-,N/A,,Clear,200,2013-11-14 11:35:00
5:55 AM,27.9,20.1,73,29.98,10.0,SSW,11.5,-,N/A,,Clear,200,2013-11-14 11:55:00
6:15 AM,27.3,20.3,75,29.98,10.0,SSW,11.5,-,N/A,,Clear,200,2013-11-14 12:15:00
6:35 AM,27.5,20.5,75,29.98,10.0,South,11.5,-,N/A,,Clear,190,2013-11-14 12:35:00
6:55 AM,27.9,20.8,75,29.97,10.0,SSW,11.5,-,N/A,,Clear,200,2013-11-14 12:55:00
7:15 AM,29.1,21.2,72,29.97,10.0,SSW,12.7,-,N/A,,Clear,200,2013-11-14 13:15:00
7:35 AM,29.8,21.2,70,29.97,10.0,SSW,11.5,-,N/A,,Clear,200,2013-11-14 13:35:00
7:55 AM,30.4,21.9,71,29.97,10.0,SSW,10.4,-,N/A,,Clear,200,2013-11-14 13:55:00
8:15 AM,32.2,23.0,69,29.97,10.0,SSW,16.1,-,N/A,,Clear,210,2013-11-14 14:15:00
8:35 AM,33.4,23.0,66,29.97,10.0,SSW,18.4,24.2,N/A,,Clear,210,2013-11-14 14:35:00
8:55 AM,34.9,23.5,63,29.96,10.0,SSW,17.3,-,N/A,,Clear,210,2013-11-14 14:55:00
9:15 AM,36.7,23.7,59,29.96,10.0,SW,18.4,23.0,N/A,,Clear,220,2013-11-14 15:15:00
9:35 AM,38.3,24.1,57,29.96,10.0,SW,18.4,27.6,N/A,,Clear,220,2013-11-14 15:35:00
9:55 AM,40.3,24.3,53,29.96,10.0,SW,20.7,25.3,N/A,,Clear,220,2013-11-14 15:55:00
10:15 AM,41.0,24.3,51,29.96,10.0,SW,19.6,25.3,N/A,,Clear,220,2013-11-14 16:15:00
10:35 AM,41.5,24.6,51,29.95,10.0,SSW,18.4,24.2,N/A,,Clear,210,2013-11-14 16:35:00
10:55 AM,41.9,24.8,51,29.95,10.0,SW,16.1,-,N/A,,Clear,220,2013-11-14 16:55:00
11:15 AM,42.4,25.0,50,29.94,10.0,SW,17.3,25.3,N/A,,Clear,220,2013-11-14 17:15:00
11:35 AM,42.8,25.3,50,29.93,10.0,SW,18.4,23.0,N/A,,Clear,220,2013-11-14 17:35:00
11:55 AM,43.3,25.7,50,29.92,10.0,SW,20.7,26.5,N/A,,Clear,220,2013-11-14 17:55:00
12:15 PM,44.2,25.7,48,29.91,10.0,SSW,20.7,24.2,N/A,,Clear,210,2013-11-14 18:15:00
12:35 PM,43.9,25.9,49,29.91,10.0,SSW,18.4,-,N/A,,Clear,210,2013-11-14 18:35:00
12:55 PM,44.6,26.2,49,29.90,10.0,SW,16.1,24.2,N/A,,Clear,230,2013-11-14 18:55:00
1:15 PM,45.5,26.6,48,29.90,10.0,SW,17.3,21.9,N/A,,Clear,220,2013-11-14 19:15:00
1:35 PM,45.5,26.6,48,29.90,10.0,SW,19.6,24.2,N/A,,Clear,220,2013-11-14 19:35:00
2:35 PM,45.9,27.3,48,29.89,10.0,WSW,12.7,-,N/A,,Clear,240,2013-11-14 20:35:00
2:55 PM,46.4,27.5,48,29.89,10.0,SW,15.0,-,N/A,,Clear,230,2013-11-14 20:55:00
3:15 PM,46.8,27.5,47,29.90,10.0,SW,13.8,21.9,N/A,,Clear,230,2013-11-14 21:15:00
3:35 PM,46.6,28.0,49,29.90,10.0,SW,15.0,18.4,N/A,,Clear,220,2013-11-14 21:35:00
3:55 PM,45.3,27.5,50,29.90,10.0,SW,16.1,-,N/A,,Clear,220,2013-11-14 21:55:00
4:15 PM,44.6,27.5,51,29.90,10.0,SSW,12.7,-,N/A,,Clear,210,2013-11-14 22:15:00
4:35 PM,43.5,27.5,53,29.90,10.0,SSW,11.5,-,N/A,,Clear,210,2013-11-14 22:35:00
4:55 PM,41.9,27.7,57,29.90,10.0,SW,10.4,-,N/A,,Clear,220,2013-11-14 22:55:00
5:15 PM,41.4,27.5,58,29.90,10.0,SSW,9.2,-,N/A,,Clear,210,2013-11-14 23:15:00
5:35 PM,40.6,27.5,59,29.90,10.0,SSW,11.5,-,N/A,,Clear,210,2013-11-14 23:35:00
5:55 PM,41.0,27.5,59,29.90,10.0,SW,10.4,-,N/A,,Clear,220,2013-11-14 23:55:00
6:15 PM,40.5,27.5,60,29.91,10.0,SSW,9.2,-,N/A,,Clear,210,2013-11-15 00:15:00
6:35 PM,39.4,27.5,62,29.90,10.0,SSW,9.2,-,N/A,,Clear,200,2013-11-15 00:35:00
6:55 PM,39.0,27.5,63,29.90,10.0,SSW,9.2,-,N/A,,Clear,210,2013-11-15 00:55:00
7:15 PM,39.4,27.5,62,29.90,10.0,SSW,9.2,-,N/A,,Clear,210,2013-11-15 01:15:00
7:35 PM,39.7,27.7,62,29.90,10.0,SSW,10.4,-,N/A,,Clear,210,2013-11-15 01:35:00
7:55 PM,39.2,27.7,63,29.90,10.0,SSW,11.5,-,N/A,,Clear,210,2013-11-15 01:55:00
8:15 PM,39.0,27.7,64,29.90,10.0,SSW,11.5,-,N/A,,Clear,210,2013-11-15 02:15:00
8:35 PM,39.4,27.9,63,29.90,10.0,SSW,11.5,-,N/A,,Clear,210,2013-11-15 02:35:00
8:55 PM,38.5,27.9,66,29.90,10.0,SSW,10.4,-,N/A,,Clear,200,2013-11-15 02:55:00
9:15 PM,37.9,27.5,66,29.89,10.0,SSW,12.7,-,N/A,,Clear,200,2013-11-15 03:15:00
9:35 PM,37.8,27.5,67,29.89,10.0,SSW,11.5,-,N/A,,Clear,200,2013-11-15 03:35:00
9:55 PM,38.1,27.3,65,29.88,10.0,SSW,13.8,-,N/A,,Clear,210,2013-11-15 03:55:00
10:15 PM,37.8,26.8,65,29.89,10.0,SSW,13.8,-,N/A,,Clear,200,2013-11-15 04:15:00
10:35 PM,38.5,27.0,63,29.89,10.0,SSW,12.7,-,N/A,,Mostly Cloudy,210,2013-11-15 04:35:00
10:55 PM,39.6,27.0,61,29.88,10.0,SSW,15.0,-,N/A,,Overcast,210,2013-11-15 04:55:00
11:15 PM,40.1,27.0,59,29.88,10.0,SSW,17.3,-,N/A,,Overcast,210,2013-11-15 05:15:00
11:35 PM,40.1,27.1,60,29.89,10.0,SW,12.7,-,N/A,,Mostly Cloudy,220,2013-11-15 05:35:00
11:55 PM,40.1,27.3,60,29.88,10.0,SSW,13.8,-,N/A,,Overcast,210,2013-11-15 05:55:00